User: anonymous   Login
Location: Mannheim
(49.4880°N, 8.4650°E)
Time: 10:11:29
(UTC+01:00)
Language:

ISS - Orbit

View from above orbital plane
View from above orbital plane
View from above satellite
View from above satellite

Ground track
Ground track

The orbit data is extracted from the following two-line orbital elements,

1 25544U 98067A   19019.80150010  .00016717  00000-0  10270-3 0  9013
2 25544  51.6420  19.2569 0004880 287.2691  72.7927 15.53179398 32197
Epoch (UTC): 19 January 2019 19:14:09
Eccentricity: 0.0004880
inclination: 51.6420°
perigee height: 404 km
apogee height: 411 km
right ascension of ascending node: 19.2569°
argument of perigee: 287.2691°
revolutions per day: 15.53179398
mean anomaly at epoch: 72.7927°
orbit number at epoch: 3219

The dashed part of the orbit path shows where the satellite is in the earth's shadow,  

DLR